Погода в Березани

Украина / Киевская область     50°18′26″N   31°29′06″E
темп.,
°C
ветер,
м/с
пор.,
м/с
влажн.,
%
обл.,
%
осадки,
мм/ч
давл.,
гПа
погр.,
м
12 апреля, пн
пн1200:00+8всв3459100 0.0 102760
03:00+7всв356684 0.0 102676
06:00+6св3570100 0.0 102582
09:00+9всв476079 0.0 1024364
12:00+7ссв4685100 1.4 1023347
15:00+9всв3481100 1.5 1022415
18:00+10ссз2283100 0.0 102184
21:00+9сз228890 0.0 102142
13 апреля, вт
вт1300:00+9зсз2290100 0.0 102128
03:00+9ссз2290100 0.0 102027
06:00+9вюв1192100 0.0 102010
09:00+9ююв2294100 0.1 102029
12:00+10ю2392100 0.2 1020209
15:00+10юв2488100 0.2 1020331
18:00+11вюв3586100 0.1 1019242
21:00+10юв2489100 0.1 101987
14 апреля, ср
ср1400:00+9ююв2489100 0.0 1018106
03:00+9ююв249197 0.0 1017106
06:00+8ююв3690100 0.0 1017186
09:00+9ю3584100 0.0 1017303
12:00+11ю4677100 0.0 1017719
15:00+13ююз346380 0.0 10161189
18:00+13зюз126119 0.0 1015504
21:00+11всв007085 0.0 101510
15 апреля, чт
чт1500:00+10в2276100 0.0 101527
03:00+9вюв3381100 0.0 101448
06:00+9в368497 0.0 1013140
09:00+11вюв377397 0.1 1013347
12:00+13юв5655100 0.0 10131172
15:00+13юв4560100 0.1 10121231
18:00+11ююв2373100 0.0 1012469
21:00+10ссз1180100 0.1 101116
16 апреля, пт
пт1600:00+9в3687100 0.3 1011241
03:00+9в359599 4.4 1010339
06:00+8всв3695100 0.3 1010303
09:00+8вюв4893100 1.9 1010509
12:00+8вюв5892100 0.8 1010581
15:00+9ю7883100 1.1 1012722
18:00+8ю4687100 0.1 1013790
21:00+6ю3590100 0.1 1015472